This demonstration page uses our WeatherBlox Daily Observations layout. Learn more.

Left ArrowRight Arrow

Hourly Observations for February 1, 2017

Temp ( °F °C ) Dew Point ( °F °C ) Humidity (%) Winds ( mph kmh ) Pressure ( in mb ) Visibility ( mi km ) Precip ( " mm )
12:53 am 00:53 Clear 40 4.4 20 -6.7 45 45 Calm 29.88 1012 10 16 0.00 0.00
1:53 am 01:53 Clear 38 3.3 21 -6.1 51 51 Calm 29.88 1012 10 16 0.00 0.00
2:53 am 02:53 Clear 38 3.3 21 -6.1 51 51 Calm 29.87 1011 10 16 0.00 0.00
3:53 am 03:53 Clear 40 4.4 20 -6.7 45 45 W 7 11 29.86 1011 10 16 0.00 0.00
4:53 am 04:53 Clear 37 2.8 21 -6.1 52 52 W 6 9 29.87 1012 10 16 0.00 0.00
5:53 am 05:53 Clear 35 1.7 22 -5.6 59 59 WNW 6 9 29.88 1012 10 16 0.00 0.00
6:53 am 06:53 Clear 31 -0.6 22 -5.6 69 69 N 5 7 29.92 1013 10 16 0.00 0.00
7:53 am 07:53 Sunny 30 -1.1 22 -5.6 72 72 NNW 3 6 29.94 1014 10 16 0.00 0.00
8:53 am 08:53 Sunny 39 3.9 24 -4.4 55 55 N 3 6 29.95 1014 10 16 0.00 0.00
9:53 am 09:53 Sunny 52 11.1 23 -5 32 32 NNW 6 9 29.96 1015 10 16 0.00 0.00
10:53 am 10:53 Sunny 62 16.7 22 -5.6 21 21 WNW 7 11 29.96 1015 10 16 0.00 0.00
11:53 am 11:53 Sunny 70 21.1 20 -6.7 15 15 W 9 15 29.94 1014 10 16 0.00 0.00
12:53 pm 12:53 Sunny 74 23.3 15 -9.4 10 10 W 15 24 29.92 1013 10 16 0.00 0.00
1:53 pm 13:53 Sunny 76 24.4 13 -10.6 9 9 NNW 10 17 29.90 1012 10 16 0.00 0.00
2:53 pm 14:53 Sunny 76 24.4 12 -11.1 9 9 WNW 14 22 29.88 1012 10 16 0.00 0.00
3:53 pm 15:53 Sunny 77 25 14 -10 9 9 NNW 10 17 29.87 1012 10 16 0.00 0.00
4:53 pm 16:53 Sunny 76 24.4 13 -10.6 9 9 NW 8 13 29.90 1012 10 16 0.00 0.00
5:53 pm 17:53 Sunny 72 22 14 -10 11 11 WSW 13 20 29.77 1008 10 16 0.00 0.00
6:53 pm 18:53 Clear 64 17.8 20 -6.7 18 18 NE 7 11 29.97 1015 10 16 0.00 0.00
7:53 pm 19:53 Clear 57 13.9 22 -5.6 26 26 ENE 9 15 30.01 1016 10 16 0.00 0.00
8:53 pm 20:53 Clear 52 11.1 24 -4.4 34 34 NE 6 9 30.03 1017 10 16 0.00 0.00
9:53 pm 21:53 Clear 48 8.9 25 -3.9 41 41 NNE 5 7 30.04 1017 10 16 0.00 0.00
10:53 pm 22:53 Clear 46 7.8 27 -2.8 47 47 NNE 5 7 30.06 1018 10 16 0.00 0.00
11:53 pm 23:53 Clear 47 8.3 29 -1.7 50 50 ENE 3 6 30.07 1018 10 16 0.00 0.00

Powered by AerisWeather